Location: ????? ??????
(37.8317°N, 23.8750°E)
Time: 12:52:18
(UTC+00:00)

Cosmos 2278 Rocket - Pass Details

Date: 20 January 2021
Orbit: 840 x 847 km, 71.0° (Epoch: 04 March)

Event Time Altitude Azimuth Distance (km) Brightness Sun altitude
Rises 18:15:41 0° 200° (SSW) 3,383 5.6 -31.5°
Reaches altitude 10° 18:18:07 10° 200° (SSW) 2,453 4.8 -32.0°
Enters shadow 18:20:33 27° 200° (SSW) 1,564 3.7 -32.5°
